Elkins, WV

3:10 AM EST on November 17, 2019 (GMT -0500)
Elkins-Randolph County

Weather History for KEKN - September, 2019

Change the Weather History Date:

Tuesday, September 17, 2019

  Actual Average Record
Temperature  
Mean Temperature 68 °F 62 °F  
Max Temperature 79 °F 73 °F 86 °F (1931)
Min Temperature 57 °F 50 °F 34 °F (1985)
Degree Days  
Heating Degree Days 0 4  
Month to date heating degree days 0 43  
Since 1 July heating degree days 7 73  
Cooling Degree Days 3 1  
Month to date cooling degree days 99 35  
Year to date cooling degree days 770 461  
Growing Degree Days 18 (Base 50)    
Moisture  
Dew Point 58 °F    
Average Humidity 83    
Maximum Humidity 94    
Minimum Humidity 54    
Precipitation  
Precipitation 0.00 in 0.13 in 1.72 in (1913)
Month to date precipitation T 2.09  
Year to date precipitation 37.71 34.90  
Snow  
Snow 0.00 in 0.00 in 0.00 in (2016)
Month to date snowfall 0.0 0.0  
Since 1 September snowfall 0.0 0.0  
Snow Depth 0.00 in    
Sea Level Pressure  
Sea Level Pressure 30.10 in    
Wind  
Wind Speed 0 mph ()    
Max Wind Speed 12 mph    
Max Gust Speed 18 mph    
Visibility 4.7 miles    
Events Fog    
T = Trace of Precipitation, MM = Missing Value Source: Averaged Metar Reports

Daily Weather History Graph

Daily Weather History Graph

Search for Another Location

Airport or City:

Astronomy

Sep. 17, 2019 Rise Set
Actual Time 7:02 AM EDT 7:24 PM EDT
Civil Twilight 6:35 AM EDT 7:51 PM EDT
Nautical Twilight 6:04 AM EDT 8:22 PM EDT
Astronomical Twilight 5:32 AM EDT 8:54 PM EDT
Moon 9:28 PM EDT 10:03 AM EDT
Length of Visible Light 13h 15m
Length of Day
12h 22m
Waning Gibbous, 89% of the Moon is Illuminated
Sep 17
Waning Gibbous
Sep 21
Last Quarter
Sep 28
New
Oct 5
First Quarter
Oct 13
Full

Hourly Weather History & Observations

Time (EDT) Temp. Dew Point Humidity Pressure Visibility Wind Dir Wind Speed Gust Speed Precip Events Conditions
12:51 AM 63.0 °F 60.1 °F 90% 30.05 in 9.0 mi Calm Calm - N/A   Scattered Clouds
1:51 AM 64.0 °F 60.1 °F 87% 30.06 in 9.0 mi Calm Calm - N/A   Mostly Cloudy
2:51 AM 62.1 °F 59.0 °F 90% 30.05 in 6.0 mi Calm Calm - N/A   Clear
3:21 AM 61.0 °F 57.9 °F 90% 30.08 in 2.5 mi Calm Calm - N/A   Partly Cloudy
3:29 AM 61.0 °F 57.9 °F 90% 30.08 in 1.5 mi Calm Calm - N/A   Partly Cloudy
3:43 AM 61.0 °F 57.9 °F 90% 30.08 in 0.8 mi Calm Calm - N/A   Mist
3:49 AM 60.8 °F 57.2 °F 88% 30.08 in 2.5 mi Calm Calm - N/A   Partly Cloudy
3:51 AM 60.1 °F 57.0 °F 90% 30.05 in 4.0 mi Calm Calm - N/A   Partly Cloudy
4:28 AM 60.1 °F 57.0 °F 90% 30.08 in 1.5 mi Calm Calm - N/A   Scattered Clouds
4:34 AM 60.1 °F 57.0 °F 90% 30.08 in 0.8 mi Calm Calm - N/A   Mist
4:51 AM 59.0 °F 55.9 °F 90% 30.05 in 0.2 mi Calm Calm - N/A Fog Fog
5:06 AM 59.0 °F 55.9 °F 90% 30.08 in 1.0 mi Calm Calm - N/A   Overcast
5:22 AM 59.0 °F 57.0 °F 93% 30.08 in 0.5 mi Calm Calm - N/A Fog Fog
5:32 AM 59.0 °F 55.4 °F 88% 30.08 in 1.2 mi Calm Calm - N/A   Mostly Cloudy
5:38 AM 59.0 °F 57.0 °F 93% 30.08 in 3.0 mi Calm Calm - N/A   Mostly Cloudy
5:44 AM 59.0 °F 55.9 °F 90% 30.08 in 1.5 mi Calm Calm - N/A   Scattered Clouds
5:51 AM 59.0 °F 55.9 °F 90% 30.06 in 0.8 mi Calm Calm - N/A   Mist
6:01 AM 57.9 °F 55.9 °F 93% 30.08 in 1.8 mi Calm Calm - N/A   Mostly Cloudy
6:06 AM 57.9 °F 55.9 °F 93% 30.09 in 3.0 mi Calm Calm - N/A   Mostly Cloudy
6:17 AM 57.9 °F 55.0 °F 90% 30.09 in 4.0 mi Calm Calm - N/A   Scattered Clouds
6:27 AM 57.0 °F 55.0 °F 93% 30.09 in 2.0 mi Calm Calm - N/A   Clear
6:39 AM 57.0 °F 54.0 °F 89% 30.09 in 1.0 mi Calm Calm - N/A   Mist
6:46 AM 57.2 °F 55.4 °F 94% 30.10 in 0.5 mi Calm Calm - N/A Fog Fog
6:54 AM 57.0 °F 54.0 °F 89% 30.10 in 2.0 mi Calm Calm - N/A   Partly Cloudy
7:03 AM 57.9 °F 55.0 °F 90% 30.10 in 6.0 mi Calm Calm - N/A   Partly Cloudy
7:10 AM 57.9 °F 55.0 °F 90% 30.10 in 2.5 mi Calm Calm - N/A   Mostly Cloudy
7:18 AM 57.0 °F 55.0 °F 93% 30.11 in 0.8 mi Calm Calm - N/A   Mist
7:40 AM 59.0 °F 55.9 °F 90% 30.12 in 2.0 mi Calm Calm - N/A   Overcast
7:48 AM 60.8 °F 57.2 °F 88% 30.12 in 5.0 mi Calm Calm - N/A   Overcast
7:51 AM 60.1 °F 57.0 °F 90% 30.11 in 6.0 mi Calm Calm - N/A   Overcast
8:06 AM 60.1 °F 57.9 °F 93% 30.12 in 1.8 mi SW 3.5 mph - N/A   Overcast
8:16 AM 61.0 °F 57.9 °F 90% 30.12 in 0.2 mi Calm Calm - N/A Fog Fog
8:49 AM 62.6 °F 59.0 °F 88% 30.13 in 1.0 mi Calm Calm - N/A   Overcast
8:51 AM 62.1 °F 59.0 °F 90% 30.11 in 1.0 mi Calm Calm - N/A   Overcast
9:08 AM 62.1 °F 59.0 °F 90% 30.13 in 1.5 mi Calm Calm - N/A   Overcast
9:29 AM 63.0 °F 60.1 °F 90% 30.14 in 0.8 mi Calm Calm - N/A   Overcast
9:40 AM 64.0 °F 61.0 °F 90% 30.14 in 2.0 mi Calm Calm - N/A   Overcast
9:48 AM 66.2 °F 60.8 °F 83% 30.14 in 6.0 mi Calm Calm - N/A   Haze
9:51 AM 66.9 °F 61.0 °F 81% 30.12 in 7.0 mi Calm Calm - N/A   Mostly Cloudy
9:59 AM 66.9 °F 61.0 °F 81% 30.14 in 9.0 mi Calm Calm - N/A   Overcast
10:51 AM 73.0 °F 63.0 °F 71% 30.12 in 10.0 mi Calm Calm - N/A   Partly Cloudy
11:41 AM 77.0 °F 61.0 °F 58% 30.14 in 10.0 mi Variable 4.6 mph - N/A   Mostly Cloudy
11:51 AM 75.9 °F 61.0 °F 60% 30.11 in 10.0 mi Variable 4.6 mph - N/A   Mostly Cloudy
12:01 PM 75.9 °F 61.0 °F 60% 30.14 in 10.0 mi Variable 5.8 mph - N/A   Overcast
12:51 PM 77.0 °F 61.0 °F 58% 30.11 in 10.0 mi Variable 4.6 mph - N/A   Mostly Cloudy
1:51 PM 79.0 °F 61.0 °F 54% 30.10 in 10.0 mi Variable 5.8 mph - N/A   Partly Cloudy
2:51 PM 75.9 °F 59.0 °F 56% 30.10 in 10.0 mi Variable 5.8 mph 16.1 mph N/A   Clear
3:51 PM 77.0 °F 60.1 °F 56% 30.09 in 10.0 mi ESE 5.8 mph - N/A   Scattered Clouds
4:51 PM 73.9 °F 59.0 °F 59% 30.09 in 10.0 mi Variable 3.5 mph - N/A   Partly Cloudy
5:51 PM 73.0 °F 59.0 °F 61% 30.10 in 10.0 mi East 4.6 mph - N/A   Clear
6:51 PM 71.1 °F 59.0 °F 66% 30.12 in 10.0 mi Calm Calm - N/A   Scattered Clouds
7:51 PM 66.9 °F 59.0 °F 76% 30.12 in 10.0 mi Calm Calm - N/A   Overcast
8:51 PM 63.0 °F 57.9 °F 84% 30.14 in 10.0 mi Calm Calm - N/A   Partly Cloudy
9:51 PM 61.0 °F 57.0 °F 87% 30.15 in 9.0 mi Calm Calm - N/A   Partly Cloudy
10:51 PM 60.1 °F 55.9 °F 86% 30.14 in 7.0 mi Calm Calm - N/A   Clear
11:51 PM 57.9 °F 55.0 °F 90% 30.14 in 5.0 mi Calm Calm - N/A   Clear